User: anonymous   Login
Location: Diebersbach
(48.5163°N, 8.0558°E)
Time: 02:19:06
(UTC+00:00)
Language:

MSX - Orbit

View from above orbital plane
View from above orbital plane
View from above satellite
View from above satellite

Ground track
Ground track

The orbit data is extracted from the following two-line orbital elements,

1 23851U 96024A   21259.45283871  .00000182  00000-0  15790-3 0  9993
2 23851  98.8419 212.7963 0007631 352.7222   7.3830 13.98107333295926
Epoch (UTC): 16 September 2021 10:52:05
Eccentricity: 0.0007631
inclination: 98.8419°
perigee height: 895 km
apogee height: 906 km
right ascension of ascending node: 212.7963°
argument of perigee: 352.7222°
revolutions per day: 13.98107333
mean anomaly at epoch: 7.3830°
orbit number at epoch: 29592

The dashed part of the orbit path shows where the satellite is in the earth's shadow,  

DLR